Home > Weather > Preveza > Past weeks

Flag for Greece Past Weather in Preveza, Greece — Yesterday and Last 2 Weeks

Now
73 °F

Passing clouds.


Feels Like: 72 °F
Forecast: 73 / 89 °F
Wind: No wind

Location: Aktion Airport

Current Time: Jul 29, 2016 at 3:24:51 AM

Latest Report: Jul 29, 2016 at 2:50 AM


Visibility: N/A

Pressure: 29.86 "Hg

Humidity: 89%

Dew Point: 70 °F

Location of PrevezaLocation

Past Weather in Preveza — Graph

°F

Preveza Temperature Yesterday

Maximum temperature yesterday: 90 °F (at 11:50 AM)
Minimum temperature yesterday: 70 °F (at 5:50 AM)
Average temperature yesterday: 81 °F

High & Low Weather Summary for the Past Weeks

 TemperatureHumidityPressure
High93 °F (Jul 27, 12:50 PM)100% (Jul 18, 8:50 AM)29.98 "Hg (Jul 18, 8:50 AM)
Low64 °F (Jul 18, 4:50 AM)26% (Jul 20, 12:50 PM)29.71 "Hg (Jul 15, 7:20 PM)
Average80 °F63%29.88 "Hg
* Reported Jul 14 1:50 AM — Jul 29 1:50 AM, Preveza, Weather by CustomWeather, © 2016

Note: Actual official high and low records may vary slightly from our data, if they occured in-between our weather recording intervals... More about our weather records

Advertising

Preveza Weather History for the Previous 24 Hours

Scroll right to see more
 ConditionsComfort  
Time TempWeatherWind HumidityBarometerVisibility
1:50 AM
Fri, Jul 29
73 °FPassing clouds.No wind83%29.86 "HgN/A
12:50 AM75 °FPassing clouds.No wind83%29.86 "HgN/A
11:50 PM
Thu, Jul 28
77 °FPassing clouds.No wind79%29.86 "HgN/A
10:50 PM79 °FPassing clouds.7 mph79%29.89 "HgN/A
9:50 PM79 °FPassing clouds.5 mph79%29.89 "HgN/A
8:50 PM79 °FPassing clouds.10 mph79%29.86 "HgN/A
8:20 PM81 °FPassing clouds.10 mph70%29.86 "HgN/A
7:50 PM82 °FPassing clouds.10 mph62%29.86 "HgN/A
7:20 PM82 °FPassing clouds.13 mph58%29.86 "HgN/A
6:50 PM84 °FPassing clouds.13 mph51%29.86 "HgN/A
6:20 PM84 °FPassing clouds.14 mph58%29.86 "HgN/A
5:50 PM84 °FPassing clouds.16 mph66%29.86 "HgN/A
5:20 PM84 °FPassing clouds.16 mph66%29.86 "HgN/A
4:50 PM84 °FPassing clouds.16 mph66%29.86 "HgN/A
4:20 PM86 °FPassing clouds.17 mph62%29.89 "HgN/A
3:50 PM86 °FPassing clouds.16 mph62%29.89 "HgN/A
3:20 PM86 °FPassing clouds.16 mph62%29.89 "HgN/A
2:50 PM86 °FPassing clouds.14 mph59%29.89 "HgN/A
2:20 PM88 °FPassing clouds.13 mph52%29.89 "HgN/A
1:50 PM86 °FPassing clouds.10 mph55%29.89 "HgN/A
1:20 PM88 °FPassing clouds.9 mph52%29.89 "HgN/A
12:50 PM86 °FPassing clouds.9 mph55%29.92 "HgN/A
12:20 PM88 °FPassing clouds.9 mph49%29.89 "HgN/A
11:50 AM90 °FPassing clouds.3 mph36%29.92 "HgN/A
11:20 AM86 °FPassing clouds.No wind46%29.92 "HgN/A
10:50 AM86 °FPassing clouds.5 mph49%29.92 "HgN/A
10:20 AM84 °FPassing clouds.No wind55%29.92 "HgN/A
9:50 AM82 °FPassing clouds.No wind62%29.92 "HgN/A
9:20 AM81 °FPassing clouds.5 mph66%29.92 "HgN/A
8:50 AM81 °FPassing clouds.5 mph70%29.92 "HgN/A
8:20 AM79 °FPassing clouds.No wind74%29.92 "HgN/A
7:50 AM75 °FPassing clouds.No wind89%29.92 "HgN/A
7:20 AM73 °FPassing clouds.No wind89%29.89 "HgN/A
6:50 AM72 °FPassing clouds.No wind88%29.89 "HgN/A
6:20 AM72 °FClear.No wind94%29.89 "Hg10 mi
5:50 AM70 °FClear.No wind94%29.89 "Hg10 mi
4:50 AM72 °FClear.No wind88%29.89 "Hg10 mi
3:50 AM72 °FClear.No wind88%29.89 "Hg10 mi
Weather by CustomWeather, © 2016

See weather overviewHow to use our weather pages